When you browse on this site, cookies collect data to enhance your experience and personalize the content and advertising you see.
Visit our Privacy Policy to learn more. By continuing to use the site, you agree to this use of cookies and data.
  • In United Kingdom
  • List of Countries
  • For 7 days
  • Water Temperature
  • Satellite Maps
  • Weather Map
  • Weather Widgets
  • user-avatar
    Login

    Hourly Weather Hurghada

    Today, 21 March, Thursday

    Time Temperature Precipitation Wind Pressure Humidity
    00:00 +17°C° 0 mm 2 mps 682 mmHg 29%
    01:00 +17°C° 0 mm 2 mps 682 mmHg 30%
    02:00 +16°C° 0 mm 2 mps 681 mmHg 33%
    03:00 +16°C° 0 mm 2 mps 681 mmHg 33%
    04:00 +15°C° 0 mm 2 mps 681 mmHg 34%
    05:00 +15°C° 0 mm 1 mps 681 mmHg 34%
    06:00 +16°C° 0 mm 2 mps 682 mmHg 30%
    07:00 +17°C° 0 mm 2 mps 683 mmHg 27%
    08:00 +19°C° 0 mm 2 mps 683 mmHg 23%
    09:00 +21°C° 0 mm 2 mps 683 mmHg 20%
    10:00 +22°C° 0 mm 3 mps 684 mmHg 17%
    11:00 +25°C° 0 mm 3 mps 684 mmHg 14%
    12:00 +26°C° 0 mm 4 mps 684 mmHg 14%
    13:00 +26°C° 0 mm 4 mps 684 mmHg 14%
    14:00 +27°C° 0 mm 5 mps 684 mmHg 15%
    15:00 +26°C° 0 mm 5 mps 683 mmHg 17%
    16:00 +25°C° 0 mm 5 mps 683 mmHg 18%
    17:00 +25°C° 0 mm 4 mps 683 mmHg 19%
    18:00 +22°C° 0 mm 4 mps 683 mmHg 22%
    19:00 +21°C° 0 mm 3 mps 683 mmHg 24%
    20:00 +20°C° 0 mm 2 mps 683 mmHg 27%
    21:00 +19°C° 0 mm 2 mps 683 mmHg 27%
    22:00 +19°C° 0 mm 2 mps 683 mmHg 27%
    23:00 +18°C° 0 mm 2 mps 683 mmHg 27%

    Tomorrow, 22 March, Friday

    Time Temperature Precipitation Wind Pressure Humidity
    00:00 +18°C° 0 mm 2 mps 683 mmHg 27%
    01:00 +17°C° 0 mm 2 mps 683 mmHg 28%
    02:00 +16°C° 0 mm 2 mps 683 mmHg 28%
    03:00 +16°C° 0 mm 2 mps 683 mmHg 29%
    04:00 +16°C° 0 mm 1 mps 683 mmHg 29%
    05:00 +15°C° 0 mm 1 mps 683 mmHg 30%
    06:00 +17°C° 0 mm 2 mps 683 mmHg 26%
    07:00 +18°C° 0 mm 2 mps 684 mmHg 22%
    08:00 +19°C° 0 mm 2 mps 685 mmHg 18%
    09:00 +20°C° 0 mm 3 mps 685 mmHg 16%
    10:00 +22°C° 0 mm 3 mps 685 mmHg 13%
    11:00 +24°C° 0 mm 3 mps 685 mmHg 10%
    12:00 +25°C° 0 mm 3 mps 685 mmHg 11%
    13:00 +25°C° 0 mm 3 mps 684 mmHg 11%
    14:00 +26°C° 0 mm 4 mps 684 mmHg 11%
    15:00 +25°C° 0 mm 4 mps 684 mmHg 11%
    16:00 +25°C° 0 mm 4 mps 683 mmHg 12%
    17:00 +23°C° 0 mm 4 mps 683 mmHg 12%
    18:00 +22°C° 0 mm 3 mps 683 mmHg 14%
    19:00 +21°C° 0 mm 3 mps 683 mmHg 17%
    20:00 +20°C° 0 mm 2 mps 683 mmHg 19%
    21:00 +19°C° 0 mm 2 mps 683 mmHg 18%
    22:00 +19°C° 0 mm 2 mps 683 mmHg 17%
    23:00 +19°C° 0 mm 2 mps 683 mmHg 17%

    Day after tomorrow, 23 March, Saturday

    Time Temperature Precipitation Wind Pressure Humidity
    00:00 +20°C° 0 mm 1 mps 683 mmHg 17%
    01:00 +20°C° 0 mm 1 mps 683 mmHg 16%
    02:00 +19°C° 0 mm 1 mps 683 mmHg 16%
    03:00 +19°C° 0 mm 1 mps 682 mmHg 18%
    04:00 +18°C° 0 mm 1 mps 682 mmHg 20%
    05:00 +18°C° 0 mm 1 mps 681 mmHg 21%
    06:00 +18°C° 0 mm 1 mps 682 mmHg 20%
    07:00 +19°C° 0 mm 1 mps 682 mmHg 19%
    08:00 +20°C° 0 mm 1 mps 682 mmHg 18%
    09:00 +21°C° 0 mm 1 mps 682 mmHg 18%
    10:00 +23°C° 0 mm 2 mps 682 mmHg 17%
    11:00 +24°C° 0 mm 2 mps 682 mmHg 17%
    12:00 +24°C° 0 mm 2 mps 682 mmHg 17%
    13:00 +25°C° 0 mm 3 mps 682 mmHg 17%
    14:00 +26°C° 0 mm 3 mps 681 mmHg 16%
    15:00 +25°C° 0 mm 3 mps 681 mmHg 17%
    16:00 +23°C° 0 mm 4 mps 680 mmHg 18%
    17:00 +23°C° 0 mm 4 mps 680 mmHg 20%
    18:00 +21°C° 0 mm 4 mps 680 mmHg 23%
    19:00 +20°C° 0 mm 4 mps 680 mmHg 26%
    20:00 +19°C° 0 mm 3 mps 679 mmHg 29%
    21:00 +18°C° 0 mm 3 mps 679 mmHg 31%
    22:00 +18°C° 0 mm 3 mps 679 mmHg 32%
    23:00 +17°C° 0 mm 3 mps 679 mmHg 33%

    24 March, Sunday

    Time Temperature Precipitation Wind Pressure Humidity
    00:00 +17°C° 0 mm 2 mps 678 mmHg 33%
    01:00 +16°C° 0 mm 2 mps 677 mmHg 33%
    02:00 +16°C° 0 mm 2 mps 677 mmHg 32%
    03:00 +16°C° 0 mm 2 mps 677 mmHg 33%
    04:00 +15°C° 0 mm 2 mps 676 mmHg 34%
    05:00 +15°C° 0 mm 2 mps 676 mmHg 34%
    06:00 +16°C° 0 mm 2 mps 677 mmHg 32%
    07:00 +17°C° 0 mm 2 mps 677 mmHg 29%
    08:00 +19°C° 0 mm 2 mps 678 mmHg 27%
    09:00 +20°C° 0 mm 2 mps 678 mmHg 25%
    10:00 +21°C° 0 mm 3 mps 678 mmHg 24%
    11:00 +24°C° 0 mm 3 mps 678 mmHg 22%
    12:00 +23°C° 0 mm 4 mps 678 mmHg 21%
    13:00 +25°C° 0 mm 4 mps 678 mmHg 19%
    14:00 +26°C° 0 mm 5 mps 677 mmHg 18%
    15:00 +26°C° 0 mm 5 mps 677 mmHg 19%
    16:00 +24°C° 0 mm 6 mps 677 mmHg 19%
    17:00 +23°C° 0 mm 7 mps 677 mmHg 20%
    18:00 +22°C° 0 mm 6 mps 677 mmHg 20%
    19:00 +21°C° 0 mm 5 mps 677 mmHg 20%
    20:00 +20°C° 0 mm 4 mps 677 mmHg 20%
    21:00 +19°C° 0 mm 4 mps 677 mmHg 20%
    22:00 +18°C° 0 mm 3 mps 677 mmHg 20%
    23:00 +18°C° 0 mm 3 mps 678 mmHg 20%

    25 March, Monday

    Time Temperature Precipitation Wind Pressure Humidity
    00:00 +17°C° 0 mm 3 mps 677 mmHg 23%
    01:00 +16°C° 0 mm 3 mps 677 mmHg 26%
    02:00 +16°C° 0 mm 3 mps 677 mmHg 29%
    03:00 +14°C° 0 mm 3 mps 677 mmHg 33%
    04:00 +13°C° 0 mm 3 mps 677 mmHg 37%
    05:00 +13°C° 0 mm 3 mps 677 mmHg 42%
    06:00 +13°C° 0 mm 4 mps 678 mmHg 38%
    07:00 +14°C° 0 mm 5 mps 678 mmHg 34%
    08:00 +14°C° 0 mm 6 mps 679 mmHg 30%
    09:00 +15°C° 0 mm 7 mps 679 mmHg 26%
    10:00 +17°C° 0 mm 8 mps 680 mmHg 23%
    11:00 +18°C° 0 mm 9 mps 680 mmHg 19%
    12:00 +18°C° 0 mm 9 mps 680 mmHg 19%
    13:00 +18°C° 0 mm 9 mps 680 mmHg 18%
    14:00 +19°C° 0 mm 10 mps 680 mmHg 18%
    15:00 +18°C° 0 mm 9 mps 680 mmHg 20%
    16:00 +17°C° 0 mm 9 mps 680 mmHg 22%
    17:00 +17°C° 0 mm 8 mps 680 mmHg 24%
    18:00 +16°C° 0 mm 7 mps 680 mmHg 27%
    19:00 +15°C° 0 mm 6 mps 680 mmHg 31%
    20:00 +14°C° 0 mm 4 mps 681 mmHg 34%
    21:00 +13°C° 0 mm 4 mps 681 mmHg 36%
    22:00 +13°C° 0 mm 4 mps 681 mmHg 37%
    23:00 +12°C° 0 mm 4 mps 681 mmHg 38%

    26 March, Tuesday

    Time Temperature Precipitation Wind Pressure Humidity
    00:00 +11°C° 0 mm 3 mps 681 mmHg 40%
    01:00 +11°C° 0 mm 3 mps 681 mmHg 42%
    02:00 +10°C° 0 mm 2 mps 681 mmHg 44%
    03:00 +9°C° 0 mm 2 mps 681 mmHg 45%
    04:00 +9°C° 0 mm 2 mps 681 mmHg 46%
    05:00 +10°C° 0 mm 1 mps 681 mmHg 47%
    06:00 +10°C° 0 mm 1 mps 681 mmHg 44%
    07:00 +11°C° 0 mm 1 mps 682 mmHg 40%
    08:00 +12°C° 0 mm 1 mps 683 mmHg 37%
    09:00 +14°C° 0 mm 1 mps 683 mmHg 33%
    10:00 +15°C° 0 mm 1 mps 683 mmHg 29%
    11:00 +18°C° 0 mm 1 mps 684 mmHg 26%
    12:00 +17°C° 0 mm 2 mps 684 mmHg 24%
    13:00 +18°C° 0 mm 3 mps 683 mmHg 22%
    14:00 +19°C° 0 mm 3 mps 683 mmHg 20%
    15:00 +19°C° 0 mm 3 mps 683 mmHg 22%
    16:00 +19°C° 0 mm 3 mps 683 mmHg 23%
    17:00 +18°C° 0 mm 3 mps 683 mmHg 24%
    18:00 +17°C° 0 mm 2 mps 683 mmHg 26%
    19:00 +16°C° 0 mm 2 mps 683 mmHg 29%
    20:00 +15°C° 0 mm 1 mps 684 mmHg 31%
    21:00 +15°C° 0 mm 1 mps 684 mmHg 33%
    22:00 +15°C° 0 mm 1 mps 683 mmHg 34%
    23:00 +14°C° 0 mm 1 mps 683 mmHg 35%
    Show more